Tracking 35331 objects as of 16-Sep-2026
HD Live streaming from Space Station
objects crossing your sky now

SL-4 R/B


SL-4 R/B is no longer on orbit


NORAD ID: 20795
Int'l Code: 1990-082B
Launch date: September 7, 1990
Source: Commonwealth of Independent States (former USSR) (CIS)
Launch site: PLESETSK MISSILE AND SPACE COMPLEX (PKMTR)
Decay date: 1990-09-09

Note: This is a ROCKET BODY
Your satellite tracking list
Your tracking list is empty




NASA's NSSDC Master Catalog

Two Line Element Set (TLE):
1 20795U 90082  B 90252.22841225  .22584271 +67263-5 +32641-3 0  9995
2 20795 082.5672 176.4191 0010718 085.7943 274.9367 16.48344725000290
Source of the keplerian elements: AFSPC